Skip to main content Skip to accessibility
This website is not compatible with your web browser. You should install a newer browser. If you live in Jersey and need help upgrading call the States of Jersey web team on 440099.
Homegov.je

Information and public services for the Island of Jersey

L'înformâtion et les sèrvices publyis pouor I'Île dé Jèrri

  • Choose the service you want to log in to:

  • gov.je

    Update your notification preferences

  • one.gov.je

    Access government services

  • CAESAR

    Clear goods through customs or claim relief

  • Talentlink

    View or update your States of Jersey job application

CI Airfield TAFs

JERSEY - EGJJ

EGJJ 021058Z 0212/0221 27015KT 9999 SCT012 PROB30 TEMPO 0212/0218 9000 SHRA BKN010=

GUERNSEY - EGJB

EGJB 021058Z 0212/0221 26015KT 9999 SCT012 PROB30 TEMPO 0212/0218 9000 SHRA BKN010=

ALDERNEY - EGJA

EGJA 021058Z 0212/0221 26015KT 9999 FEW010 PROB30 TEMPO 0212/0218 9000 SHRA BKN010=

​Apologies to the disruption to normal service. Commercial Aviation Services are available from the Jersey Met Forecaster 01534 448765.

Back to top
rating button